TimeAKDT,TemperatureF,Dew PointF,Humidity,Sea Level PressureIn,VisibilityMPH,Wind Direction,Wind SpeedMPH,Gust SpeedMPH,PrecipitationIn,Events,Conditions,WindDirDegrees,DateUTC
12:53 AM,55.0,52.0,89,29.72,10.0,SSW,10.4,-,0.00,Rain,Light Rain,200,2013-09-10 08:53:00
1:47 AM,51.8,51.8,100,29.72,7.0,East,5.8,-,0.02,Rain,Light Rain,80,2013-09-10 09:47:00
1:53 AM,52.0,51.1,97,29.72,7.0,East,4.6,-,0.03,Rain,Light Rain,80,2013-09-10 09:53:00
2:14 AM,53.6,51.8,94,29.72,5.0,Calm,Calm,-,0.01,Rain,Light Rain,0,2013-09-10 10:14:00
2:19 AM,53.6,53.6,100,29.72,2.5,Calm,Calm,-,0.04,Rain,Heavy Rain,0,2013-09-10 10:19:00
2:25 AM,53.6,51.8,94,29.71,2.0,Calm,Calm,-,0.08,Rain,Heavy Rain,0,2013-09-10 10:25:00
2:31 AM,53.6,51.8,94,29.72,3.0,Calm,Calm,-,0.09,Rain,Light Rain,0,2013-09-10 10:31:00
2:53 AM,52.0,51.1,97,29.71,2.5,NNE,4.6,-,0.12,Rain,Light Rain,20,2013-09-10 10:53:00
3:00 AM,53.6,51.8,94,29.71,4.0,Calm,Calm,-,0.00,Rain,Light Rain,0,2013-09-10 11:00:00
3:25 AM,51.8,51.8,100,29.71,4.0,Calm,Calm,-,0.08,Rain,Light Rain,0,2013-09-10 11:25:00
3:35 AM,51.8,51.8,100,29.71,1.8,Calm,Calm,-,0.13,Rain,Heavy Rain,0,2013-09-10 11:35:00
3:53 AM,53.1,52.0,96,29.71,1.8,Calm,Calm,-,0.26,Rain,Heavy Rain,0,2013-09-10 11:53:00
4:00 AM,53.6,51.8,94,29.71,2.5,Calm,Calm,-,0.02,Rain,Light Rain,0,2013-09-10 12:00:00
4:08 AM,53.6,51.8,94,29.71,3.0,Calm,Calm,-,0.05,Rain,Rain,0,2013-09-10 12:08:00
4:21 AM,51.8,51.8,100,29.70,1.8,SW,3.5,-,0.08,Rain,Light Rain,230,2013-09-10 12:21:00
4:35 AM,53.6,51.8,94,29.70,2.5,Calm,Calm,-,0.15,Rain,Rain,0,2013-09-10 12:35:00
4:53 AM,52.0,51.1,97,29.70,2.0,Calm,Calm,-,0.18,Rain,Light Rain,0,2013-09-10 12:53:00
5:23 AM,53.6,51.8,94,29.69,10.0,SE,4.6,-,0.03,Rain,Light Rain,140,2013-09-10 13:23:00
5:53 AM,53.1,52.0,96,29.70,3.0,SSE,8.1,-,0.15,Rain,Heavy Rain,150,2013-09-10 13:53:00
6:01 AM,53.6,51.8,94,29.70,3.0,Variable,3.5,-,0.04,Rain,Rain,0,2013-09-10 14:01:00
6:53 AM,55.0,53.1,93,29.70,10.0,South,5.8,-,0.09,Rain,Light Rain,170,2013-09-10 14:53:00
7:11 AM,53.6,51.8,94,29.70,6.0,Calm,Calm,-,0.02,Rain,Light Rain,0,2013-09-10 15:11:00
7:38 AM,53.6,51.8,94,29.71,3.0,Calm,Calm,-,0.06,Rain,Light Rain,0,2013-09-10 15:38:00
7:53 AM,53.1,52.0,96,29.71,6.0,Calm,Calm,-,0.07,Rain,Light Rain,0,2013-09-10 15:53:00
8:08 AM,51.8,51.8,100,29.71,2.5,Calm,Calm,-,0.02,Rain,Light Rain,0,2013-09-10 16:08:00
8:17 AM,51.8,51.8,100,29.71,1.2,NNE,3.5,-,0.03,Rain,Light Rain,30,2013-09-10 16:17:00
8:25 AM,51.8,51.8,100,29.71,0.8,Calm,Calm,-,0.04,Rain,Light Rain,0,2013-09-10 16:25:00
8:33 AM,51.8,51.8,100,29.71,1.2,ESE,6.9,-,0.05,Rain,Light Rain,120,2013-09-10 16:33:00
8:35 AM,51.8,51.8,100,29.71,2.5,ESE,5.8,-,0.05,Rain,Light Rain,120,2013-09-10 16:35:00
8:41 AM,51.8,51.8,100,29.71,7.0,SE,4.6,-,0.05,Rain,Light Rain,130,2013-09-10 16:41:00
8:53 AM,52.0,51.1,97,29.72,10.0,SSE,8.1,-,0.06,Rain,Light Rain,150,2013-09-10 16:53:00
9:11 AM,53.6,51.8,94,29.71,10.0,SSE,9.2,-,0.00,Rain,Light Rain,150,2013-09-10 17:11:00
9:23 AM,51.8,50.0,94,29.72,8.0,ESE,8.1,-,0.00,Rain,Light Rain,120,2013-09-10 17:23:00
9:53 AM,53.1,51.1,93,29.73,10.0,SE,11.5,-,0.01,Rain,Light Rain,140,2013-09-10 17:53:00
10:50 AM,53.6,51.8,94,29.74,10.0,SE,8.1,-,0.01,Rain,Light Rain,140,2013-09-10 18:50:00
10:53 AM,53.1,51.1,93,29.74,10.0,SE,6.9,-,0.01,Rain,Light Rain,140,2013-09-10 18:53:00
11:35 AM,53.6,51.8,94,29.75,10.0,SE,5.8,-,0.00,,Overcast,140,2013-09-10 19:35:00
11:53 AM,51.1,50.0,96,29.75,7.0,SSE,6.9,-,0.01,Rain,Light Rain,150,2013-09-10 19:53:00
12:53 PM,54.0,52.0,93,29.75,10.0,South,11.5,-,0.00,,Overcast,190,2013-09-10 20:53:00
1:16 PM,53.6,51.8,94,29.76,10.0,South,5.8,-,0.01,Rain,Light Rain,170,2013-09-10 21:16:00
1:35 PM,53.6,51.8,94,29.76,4.0,South,6.9,-,0.02,Rain,Light Rain,190,2013-09-10 21:35:00
1:46 PM,53.6,51.8,94,29.76,10.0,Variable,5.8,-,0.02,Rain,Light Rain,0,2013-09-10 21:46:00
1:53 PM,53.1,51.1,93,29.77,10.0,SSE,5.8,-,0.02,Rain,Light Rain,150,2013-09-10 21:53:00
2:02 PM,51.8,51.8,100,29.76,10.0,SE,8.1,-,0.00,Rain,Light Rain,140,2013-09-10 22:02:00
2:23 PM,53.6,51.8,94,29.76,10.0,South,10.4,-,0.00,Rain,Light Rain,190,2013-09-10 22:23:00
2:53 PM,54.0,52.0,93,29.77,10.0,SSE,5.8,-,0.00,Rain,Light Rain,160,2013-09-10 22:53:00
3:37 PM,53.6,51.8,94,29.77,2.5,South,4.6,-,0.02,Rain,Light Rain,170,2013-09-10 23:37:00
3:44 PM,53.6,53.6,100,29.77,3.0,South,5.8,-,0.02,Rain,Light Rain,170,2013-09-10 23:44:00
3:53 PM,53.1,52.0,96,29.77,4.0,SSW,8.1,-,0.02,Rain,Light Rain,200,2013-09-10 23:53:00
4:53 PM,52.0,51.1,97,29.77,7.0,SSE,5.8,-,0.01,Rain,Light Rain,150,2013-09-11 00:53:00
5:21 PM,53.6,51.8,94,29.76,10.0,ESE,3.5,-,0.01,,Overcast,110,2013-09-11 01:21:00
5:44 PM,53.6,53.6,100,29.75,10.0,East,5.8,-,0.01,,Overcast,80,2013-09-11 01:44:00
5:53 PM,54.0,52.0,93,29.75,10.0,East,4.6,-,0.01,,Overcast,90,2013-09-11 01:53:00
6:53 PM,55.0,53.1,93,29.75,10.0,Calm,Calm,-,N/A,,Overcast,0,2013-09-11 02:53:00
7:53 PM,54.0,53.1,97,29.73,6.0,Calm,Calm,-,0.01,Rain,Light Rain,0,2013-09-11 03:53:00
8:01 PM,51.8,51.8,100,29.73,1.5,Calm,Calm,-,0.00,,Overcast,0,2013-09-11 04:01:00
8:04 PM,51.8,51.8,100,29.73,0.8,Calm,Calm,-,0.00,,Overcast,0,2013-09-11 04:04:00
8:11 PM,51.8,51.8,100,29.72,1.0,Calm,Calm,-,0.00,,Overcast,0,2013-09-11 04:11:00
8:14 PM,53.6,51.8,94,29.72,2.0,Calm,Calm,-,0.01,Rain,Light Rain,0,2013-09-11 04:14:00
8:21 PM,53.6,53.6,100,29.73,7.0,Calm,Calm,-,0.01,Rain,Light Rain,0,2013-09-11 04:21:00
8:41 PM,51.8,50.0,94,29.72,1.8,Calm,Calm,-,0.02,Rain,Light Rain,0,2013-09-11 04:41:00
8:53 PM,51.1,51.1,100,29.73,2.0,Calm,Calm,-,0.02,Rain,Light Rain,0,2013-09-11 04:53:00
8:56 PM,51.8,51.8,100,29.72,1.0,Calm,Calm,-,0.00,Rain,Light Rain,0,2013-09-11 04:56:00
9:05 PM,51.8,51.8,100,29.72,0.8,Calm,Calm,-,0.00,Rain,Light Rain,0,2013-09-11 05:05:00
9:10 PM,53.6,51.8,94,29.72,1.2,Calm,Calm,-,0.01,Rain,Light Rain,0,2013-09-11 05:10:00
9:22 PM,51.8,50.0,94,29.72,1.0,Calm,Calm,-,0.01,Rain,Light Rain,0,2013-09-11 05:22:00
9:42 PM,51.8,51.8,100,29.71,0.8,North,-9999.0,-,0.03,Rain,Light Rain,0,2013-09-11 05:42:00
9:47 PM,51.8,51.8,100,29.71,1.2,Calm,Calm,-,0.03,Rain,Light Rain,0,2013-09-11 05:47:00
9:53 PM,51.1,51.1,100,29.70,1.8,Calm,Calm,-,0.03,Rain,Light Rain,0,2013-09-11 05:53:00
9:56 PM,50.0,48.2,94,29.70,1.0,NNE,3.5,-,0.01,Rain,Light Rain,20,2013-09-11 05:56:00
10:05 PM,51.8,51.8,100,29.70,2.5,Calm,Calm,-,0.01,Rain,Light Rain,0,2013-09-11 06:05:00
10:12 PM,51.8,51.8,100,29.70,4.0,Calm,Calm,-,0.01,Rain,Light Rain,0,2013-09-11 06:12:00
10:22 PM,51.8,51.8,100,29.69,3.0,Calm,Calm,-,0.02,Rain,Light Rain,0,2013-09-11 06:22:00
10:53 PM,53.1,52.0,96,29.69,9.0,North,3.5,-,0.03,Rain,Light Rain,10,2013-09-11 06:53:00
11:53 PM,52.0,51.1,97,29.67,9.0,North,5.8,-,0.06,Rain,Light Rain,350,2013-09-11 07:53:00